Thor Agena Rocket - Orbit

View from above orbital plane
View from above orbital plane
View from above satellite
View from above satellite

Ground track
Ground track

The orbit data is extracted from the following two-line orbital elements,

1 00733U 64002A   13143.87057566  .00000268  00000-0  11751-3 0  9513
2 00733 098.9807 244.5808 0034597 176.6041 260.8234 14.31637432569739
Epoch (UTC): 23 May 2013 20:53:37
Eccentricity: 0.0034597
inclination: 98.9807°
perigee height: 761 km
apogee height: 811 km
right ascension of ascending node: 244.5808°
argument of perigee: 176.6041°
revolutions per day: 14.31637432
mean anomaly at epoch: 260.8234°
orbit number at epoch: 56973

The dashed part of the orbit path shows where the satellite is in the earth's shadow,  

Developed and maintained by Chris Peat, Heavens-Above GmbH. Please read the updated FAQ before sending e-mail. Imprint. DLR